ONEWEB-0132 (47278 NORAD) Tracking and Keplerian Element Data

This shows tracking and keplerian element data for the satellite.

Feedback or suggestion? Click here.




ElementValue
Catalog47278
NameONEWEB-0132
Epoch Orbit1693
Epoch Day106.25002315
Epoch Year2021
RAAN6.0878
Inclination87.9409
Eccentricity0.0001853
Argument of Perigee94.7981
Mean Anonmoly221.4399
Mean Motion13.23623649
Decay Rate-0.00010932
L11 47278U 20100W 21106.25002315 -.00010932 00000-0 -25833-1 0 9998
L22 47278 87.9409 6.0878 0001853 94.7981 221.4399 13.23623649 16939

Live tracking and technical data element details for ONEWEB-0132 (NORAD 47278). ONEWEB-0132 can be tracked NOW for your location showing map with azimuth and elevation plus other details from your city location.

Track the satellite on the map from your city or location and see movement details for azimuth, elevation, latitude, longitude, range, height, and movement on the map or in text.







IsCatalogInMostPopularTable: catalog: 47278, numindb: 39
Update: records affected: 1



GetName: 47278 ONEWEB-0132

Hit Count: updated at: Fri, 16 Apr 2021 10:52:10 GMT